Regional Weather Roundup
Issued by NWS

Home | Current Version | Previous Version | Text Only | Print | Product List | Glossary On
Versions: 1 2 3 4 5 6 7 8 9 10 11 12 13 14 15 16 17 18 19 20 21 22 23 24 25 26 27 28 29 30 31 32 33 34 35 36 37 38 39 40 41 42 43 44 45 46 47 48 49 50
000
ASUS45 KBOU 032007
RWRCO

WEATHER ROUNDUP FOR COLORADO
NATIONAL WEATHER SERVICE DENVER/BOULDER CO
200 PM MDT THU SEP 03 2015

NOTE: "FAIR" INDICATES FEW OR NO CLOUDS BELOW 12000 FEET WITH NO
SIGNIFICANT WEATHER AND/OR OBSTRUCTIONS TO VISIBILITY.

COZ001>005-013-030-031-032100-
...NORTHWEST COLORADO...

CITY           SKY/WX    TMP DP  RH WIND       PRES   REMARKS
CRAIG          CLOUDY    79  48  33 S20G26    30.08F
HAYDEN         CLOUDY    73  43  33 SW13      30.11F
MEEKER         CLOUDY    72  48  42 S21G26    30.12F
MOUNT WERNER   NOT AVBL
STEAMBOAT SPGS CLOUDY    71  45  39 CALM      30.13F
WALDEN         CLOUDY    63  39  42 SW8       30.21R
$$

COZ006>008-011-032100-
...WEST CENTRAL VALLEYS...

CITY           SKY/WX    TMP DP  RH WIND       PRES   REMARKS
GRAND JUNCTION MOSUNNY   78  52  40 SE25G32   30.04F
MONTROSE       PTSUNNY   69  54  58 SE5       30.17F
EAGLE          LGT RAIN  55  54  94 NE5       30.26R
RIFLE          LGT RAIN  61  57  87 E12       30.16F
DELTA          LGT RAIN  75  52  44 E7        30.13F
NUCLA          PTSUNNY   79  45  29 N5        30.14F
$$

COZ017>023-064>068-032100-
...SOUTHWEST COLORADO...

CITY           SKY/WX    TMP DP  RH WIND       PRES   REMARKS
DURANGO        MOSUNNY   77  42  28 W12G20    30.16F
CORTEZ         MOSUNNY   80  45  28 VRB6      30.11F
PAGOSA SPRINGS PTSUNNY   62  53  73 NE6       30.26S
TELLURIDE      PTSUNNY   58  50  74 SE7       30.35F
WOLF CREEK PAS NOT AVBL
$$

COZ009-010-012-014-032>034-037-058>063-032100-
...CENTRAL COLORADO...

CITY           SKY/WX    TMP DP  RH WIND       PRES   REMARKS
ASPEN          LGT RAIN  59  47  64 CALM      30.29F
BUENA VISTA    RAIN      58  51  80 NW9       30.26R
COPPER MTN     HAZE      46  41  81 NE3       30.52F VSB<1/4
BERTHOUD PASS  TSTM      36  25  64 W9        30.55S VSB 1/2
COTTONWOOD PAS NOT AVBL
GUNNISON       CLOUDY    61  48  63 S5        30.31F
KREMMLING      TSTM      55  46  71 SW15G28   30.27R
LEADVILLE      CLOUDY    53  46  77 VRB5      30.37F
MONARCH PASS   LGT RAIN  43  43 100 W20       30.61S VSB<1/4
SALIDA         CLOUDY    67  47  47 NW6       30.29R
SUNLIGHT       LGT RAIN  48  46  93 CALM      30.48F
WILKERSON PASS CLOUDY    55  37  50 CALM      30.47F
$$

COZ069>075-032100-
...SAN LUIS VALLEY/SANGRE DE CRISTO MOUNTAINS...

CITY           SKY/WX    TMP DP  RH WIND       PRES   REMARKS
ALAMOSA        PTSUNNY   74  45  35 VRB6      30.19F
LA VETA PASS   PTSUNNY   59  43  55 SW9       30.37F
SAGUACHE       PTSUNNY   64  46  52 NW21G26   30.24S
$$

COZ035-036-038>040-032100-
...NORTHERN COLORADO FRONT RANGE...

CITY           SKY/WX    TMP DP  RH WIND       PRES   REMARKS
DENVER INTL AP PTSUNNY   85  42  22 VRB3      30.00F
DMNS CITY PARK   N/A     84  42  22 SE3G13    29.99F
AURORA         PTSUNNY   83  43  24 VRB3      30.02F
FRONT RANGE AP PTSUNNY   84  41  21 NE8       30.02F
ERIE MUNI ARPT PTSUNNY   85  39  19 E8        29.98F
BOULDER MUN AP PTSUNNY   84  45  24 SE5       29.98F
CENTENNIAL     PTSUNNY   81  44  27 N8        30.04F
BROOMFIELD     PTSUNNY   84  41  21 E7        30.03F
FORT COLLINS   CLOUDY    81  48  32 S8        29.98F
LONGMONT       CLOUDY    83  45  26 E6        30.00F
$$

COZ041-046-047-076>085-087-088-032100-
...PIKES PEAK/PALMER DIVIDE AND SOUTHERN FOOTHILLS...

CITY           SKY/WX    TMP DP  RH WIND       PRES   REMARKS
COLO. SPRINGS  PTSUNNY   83  42  23 NE12      30.05F
A. F. ACADEMY  PTSUNNY   79  42  26 N3        30.07F
ELLICOTT       MOSUNNY  N/A N/A N/A N13G20    30.03F
FALCON         MOSUNNY   81  43  26 MISG      30.11F
FORT CARSON    PTSUNNY   84  45  25 N12G20    30.01F
LIMON          SUNNY     84  47  27 N17G23    29.99F
MONUMENT HILL  MOSUNNY   75  41  29 NE10G16   30.13F
TRINIDAD       MOSUNNY   87  39  18 W5        29.99F
$$

COZ042>045-048>051-090-091-032100-
...NORTHEAST COLORADO...

CITY           SKY/WX    TMP DP  RH WIND       PRES   REMARKS
GREELEY ARPT   CLOUDY    84  48  28 E10       29.97F
AKRON          CLOUDY    89  42  19 NW15G24   29.93F
BURLINGTON     PTSUNNY   91  49  23 SE9       29.89F
WRAY           CLOUDY    95  39  14 S7        29.86S
STERLING       CLOUDY    84  50  30 NW15      29.88F
HOLYOKE        MOSUNNY   95  55  26 S5        29.86S
FORT MORGAN    CLOUDY    84  44  24 W13       29.96F
$$

COZ086-089-092>099-032100-
...SOUTHEAST COLORADO...

CITY           SKY/WX    TMP DP  RH WIND       PRES   REMARKS
PUEBLO         PTSUNNY   91  43  18 N13G21    29.90F
LA JUNTA       PTSUNNY   97  44  16 SW9       29.86F
LAMAR          PTSUNNY   96  48  19 VRB7      29.82F
SPRINGFIELD      N/A     95  46  18 S16G25    29.90F
$$



USA.gov is the U.S. government's official web portal to all federal, state and local government web resources and services.